cliquez pour ajouter le site Runraid à vos favoris  English version (google)  Retour à l'accueil Ecrire à l'auteur du site Runraid : Michel Jourdan



Les prochaines courses


Les derniers résultats

cliquez pour visualiser la page complète relatant la chronologie des éruptions du Piton de la Fournaise
éruptions Piton de la Fournaise


Ile de La Réunion

 Diagonale des Fous 

Ecrire au créateur du site : Michel Jourdan
Contact


2016-01-10 - Vibram Hong Kong 100 2016

Pour consulter le palmarès d'un coureur, un clic sur son nom !

Vous avez des remarques, corrections, ... sur ces résultats , un clic sur --> pour me transmettre toute information concernant les classements


Vibram Hong Kong 100 2016 - 2016 : classement des 800 finishers
Place Nom Temps Cat. Club Sexe Clt/cat.
Place Nom Temps Cat. Club Sexe Clt/cat.
1 DHAENE Francois 09:32:26 Salomon Internationnal M 8
2 YAN Long Fei 09:37:17 Salomon M 1
3 GRINIUS Gediminas 09:53:51 Team Vibram M 10
4 CAPELL GIL Pau 10:06:42 Compressport Team M 18
5 DURAN LOPEZ Yeray 10:36:04 Arista M 19
6 GAMITO Jordi 10:37:36 SEM ESP - WAA Team M 4
7 OOSE Kazufumi 10:47:39 Salomon M 20
8 TSANG Siu Keung 10:53:02 Champion System Adventure M 7
9 IINO Wataru 10:56:59 M 5
10 NOKELAINEN Jussi 11:07:55 Inov 8 Mud Racing Team M 161
11 WONG Ho Chung 11:16:19 Champion System Adventure M 41
12 OKUNOMIYA Shunsuke 11:26:01 Montrail M 22
13 JEKER David 11:35:19 WAA Team M 36
14 ZANCHI Marco 11:37:54 M 45
15 NAIN Sebastien 11:40:00 Team Vibram M 44
16 SHERPA Sange 11:41:19 WAA Team M 12
17 RITCEY Jeremy 11:46:40 Salomon M 39
18 BACYS Modestas 11:50:22 M 73
19 ELLIS John 11:50:26 Gone Running Joint Dynami M 32
20 KULUNG Kiran 11:52:52 AWOO Team Nepal M 47
21 WANG Zichen 11:56:32 M 21
22 ANDREWS Justin 12:00:43 M 71
23 QIN Yanzhong 12:00:43 M 169
24 WEI Wen Zhong 12:01:45 M 195
25 DONG Li 12:05:32 Salomon / Red Bull F 1ere F 2
26 KULUNG RAI Arjun 12:13:44 AWOO Team Nepal M 46
27 KUMAZAWA Akira 12:17:15 M 833
28 WORTMANN Tim 12:28:32 UVU Racing M 16
29 BORZANI Lisa 12:30:41 F 2eme F 3
30 CHEUNG Hung Fat 12:34:08 M 86
31 TRIGUEROS Silvia Ainhoa 12:34:23 Race Land F 3eme F 26
32 THEODOSIS Dennis 12:35:56 M 1544
33 WARDIAN Michael 12:36:47 UVU Racing M 15
34 CHIU Wen Hsiao 12:36:49 M 456
35 JIANG Liangjun 12:47:25 CBN Ultra Trail M 112
36 LE BRAS Erwan 12:51:48 M 124
37 GUO Qingsong 12:53:37 M 625
38 LIAO Zhicong 12:56:32 Engine Bird M 140
39 LI Kuo 12:56:33 M 1017
40 DE GAETANO Riccardo 12:57:42 Runner's World M 89
41 WANG Xiaolin 13:04:21 M 52
42 MATSON Daniel 13:05:26 M 1196
43 WALTON Mark 13:05:45 Gone Running Joint Dynami M 2029
44 LENG Mat 13:11:05 Uglow M 2027
45 PAPI Luca 13:14:49 WAA Team M 37
46 CHAN Wai Tik 13:16:16 Cosmoboys M 81
47 NG Kwok Lun 13:18:52 Asia Trail M 34
48 WILLIAMS Corinne 13:19:34 F 4 F 1684
49 BERTRAND Sebastien 13:22:55 M 76
50 NILSEN Jan 13:25:54 M 160
51 DENG Guomin 13:26:35 M 90
52 GUO Qiyun 13:27:33 M 106
53 RIDLEY Paul 13:28:25 Team Green M 1359
54 KISO Tetsuo 13:28:41 My Star M 116
55 CATHERINE Gil 13:30:28 M 294
56 VARASIN Phairat 13:30:53 Unjirunners M 1605
57 KWAN Wai Chun 13:31:22 Salomon HK M 118
58 MONTOYA Alvaro 13:31:30 Team Pro Chile M 1224
59 ROBERTSHAW Thomas 13:32:54 M 170
60 ZHOU Qipeng 13:34:35 M 219
61 NG Chun Ting 13:34:48 CORES M 156
62 YU Jian Hua 13:38:03 M 1884
63 LEE Peter 13:39:36 2XU M 130
64 MARGEIRSDOTTIR Elisabet 13:41:40 Arctic Running F 5 F 58
65 LANG Bin 13:42:43 M 889
66 ZHENG Nanhui 13:44:14 M 1982
67 PAJARO Paolo 13:46:49 Amatori Atletica Chirigna M 166
68 TAN Emilie 13:47:52 F 6 F 180
69 PEREZ FERNANDEZ Daniel 13:48:14 Gone Running Joint Dynami M 1323
70 CHEN Kang 13:48:33 Team 7DAYS M 376
71 KUBOTA Naoki 13:49:45 M 828
72 DEMARE Romain 13:50:44 M 519
73 ALVELAIS GONZALEZ Joseluis 13:50:58 M 233
74 LEE Man Kit 13:50:58 M 939
75 KHANCHAI Sanya 13:52:01 M 59
76 MITRANI Sebastien 13:52:14 M 151
77 TO Ming Shing 13:53:38 M 1557
78 MCNAUGHTON Marie 13:55:52 Gone Running F 7 F 29
79 YUEN Wan Ho 13:57:57 Asia Trail M 216
80 CHAN Angus 13:58:57 Kin Hang Hiking Club M 78
81 NATTERI Vince 14:01:32 Hong Kong Trail Runners M 154
82 LI Wei Hui 14:02:23 M 138
83 WONG Patrick 14:04:49 M 1720
84 SIMPAT Daved 14:05:53 Champion System Adventure M 38
85 WATKINS Natalia 14:06:09 F 8 F 194
86 CHAN Rock 14:06:58 M 334
87 WU Ping 14:10:27 M 1750
88 LAU Nicole 14:10:52 F 9 F 48
89 TANG Sun Kam 14:11:56 2XU HK M 43
90 LEUNG Wing Yan Nicole 14:14:09 F 10 F 135
91 CHUNG Wing Cheung 14:15:51 M 499
92 PARKINSON Gordon 14:18:55 M 1312
93 HASEGAWA Shinichi 14:19:53 JST M 639
94 XIE Bin 14:20:40 M 203
95 LEUNG Anthony King Yan 14:22:42 WAA Kin Hang Hiking Club M 132
96 ONYSCHENKO Bogdan 14:22:44 M 1288
97 NOBUHITO Kubo 14:25:18 Eurex Fields on Earth M 1278
98 HUI Ho Tat 14:25:46 M 109
99 TATSUYA Kawasaki 14:26:35 M 1528
100 DERMAWAN Abdul Aziz 14:30:22 BDG Explorer M 91
101 CHEN Sony 14:30:27 M 388
102 GROLEAU Romain 14:30:34 M 103
103 XIE Liansheng 14:39:55 HH & TSBR M 1771
104 LEUNG Chun Keung 14:41:33 Salomon HK M 51
105 WONG T.Y. Ian 14:41:42 M 1726
106 JIANG Liangzhi 14:41:48 M 113
107 ZHAO Lei 14:42:31 M 1966
108 GAO Zhen Zhu 14:44:33 M 100
109 SANTER Johann Peter 14:44:43 M 1377
110 LEVENTHAL Shiri 14:45:23 F 11 F 991
111 KIERNAN Sigurdur 14:47:29 M 115
112 FATON Laurent 14:47:33 M 99
113 OWAKI Noriyuki 14:47:47 Samurai M 1296
114 TSE Sui Man 14:47:49 M 185
115 ZHOU Bin 14:49:35 Tecnica M 1989
116 FANG Zhengjie 14:49:53 Vibram M 557
117 FENG Zhen Yu 14:50:14 M 1610
118 CHEN Tommy 14:52:07 M 389
119 FU Anhua 14:53:40 CBN Ultra Trail M 576
120 WANG Jeanette 14:56:10 F 12 F 189
121 TANG Le 14:56:55 M 181
122 LAM Ka Wai 15:01:37 M 119
123 WU Xiaochang 15:01:43 M 1759
124 LIU Chun Yin 15:02:23 M 1089
125 FAN Feng Juan 15:02:24 F 13 F 97
126 WISMOYONO Arief 15:02:28 BDG Explorer M 197
127 CHAN Chin Lung 15:03:12 M 306
128 TANG Eric 15:04:56 M 1511
129 CHEN Guohui 15:05:45 M 369
130 ZHANG Long 15:06:10 M 1938
131 SAAD Mohammad 15:06:10 M 1369
132 GU Chengliang 15:08:15 M 104
133 GUAN Zhong 15:08:16 M 617
134 SATO Kazuto 15:08:25 M 1379
135 YE Pinggang 15:08:37 Li Ning Outdoor Club M 1842
136 MARIA Romain 15:09:42 M 1192
137 MAN Ho Ming Ricky 15:10:00 Trailwalker Teaching Room M 1189
138 TIYONG Ru 15:13:03 M 1553
139 YAN Zhengqing 15:13:18 M 1806
140 EMERSON Ezra 15:13:55 Team Ferei M 2050
141 LIN Xiaoyan 15:14:33 F 14 F 141
142 BONNARD Julien 15:16:25 M 267
143 FENG Jixing 15:16:39 M 563
144 TSE Wai Hung 15:16:51 M 2030
145 HUANG Rui 15:20:31 M 721
146 SZE Tak Heung 15:20:36 M 1479
147 WANG Yan 15:20:40 M 192
148 YU Jianhua 15:21:36 M 1886
149 WEI Zhigang 15:21:42 M 1675
150 YAN Yun 15:21:53 M 205
151 WU Dewei 15:22:22 M 1739
152 CHAN Ivan 15:23:17 Club Mad M 79
153 WU Tongtao 15:23:43 M 201
154 YEE Hing Tong 15:23:47 M 207
155 LAN Yang 15:23:58 M 888
156 TSANG Yuwa 15:25:27 M 1582
157 WONG Tak Tai Alan 15:25:28 M 1727
158 CHOW Chi Hung 15:27:01 M 473
159 ZHANG Zilong 15:27:06 M 1961
160 YU Yue 15:28:04 M 1898
161 PEREZ Montse 15:28:05 F 15 F 56
162 CUI Shi You 15:28:21 M 509
163 ZHANG Dong 15:28:21 M 217
164 HU Ge Wen 15:28:22 M 699
165 HENGCHANG Wang 15:28:35 M 656
166 ZHU Shubiao 15:31:32 CBN Ultra Trail M 2014
167 HUANG Lei 15:31:59 M 716
168 HUANG Zhongzhong 15:32:20 M 735
169 PINTRAVA Milos 15:32:46 AWOO M 1329
170 SHEN Ming 15:32:47 M 1403
171 WU Hung Wen 15:32:53 M 1743
172 ESPINASSE Sebastien 15:38:50 M 549
173 ARNASON Borkur 15:38:55 M 241
174 AOKI Hirokazu 15:38:56 M 239
175 EVANS Dwyfor 15:39:32 Gone Running Joint Dynami M 95
176 ZHANG Rongyao 15:40:20 M 1945
177 LIU Yuanbin 15:40:42 M 1122
178 CHI Jeffrey 15:40:46 EFCC Kong Fok Church M 443
179 CHAN Larry 15:40:55 M 326
180 DING Zhiming 15:41:04 M 527
181 ZHENG Hailiang 15:41:09 CBN?Ultra?Trail M 1979
182 LEE Mui Sang 15:41:12 M 940
183 KRISTINSSON Birkir 15:41:15 M 826
184 SHI Hongxia 15:41:19 F 16 F 173
185 UNO Yosuke 15:41:23 M 1597
186 GUO Baobao 15:41:38 M 627
187 LEE Benjamin 15:42:15 M 918
188 LAI Chi Ho 15:42:35 M 855
189 HAN Nikki 15:42:42 F 17 F 107
190 MAI Jinji 15:42:46 M 1183
191 CHENG Hoi Wah 15:42:48 M 409
192 ZHANG Jirong 15:43:12 M 1936
193 YANG Ning 15:44:03 M 1816
194 SUN Chengwu 15:44:09 M 1466
195 NOMA Yoko 15:44:22 Team Sporciva F 18 F 162
196 LIANG Xinde 15:45:32 M 139
197 CHEN Yuzeng 15:45:32 M 402
198 ZHANG Fangming 15:45:34 M 1933
199 NAKAGAWA Yoshinori 15:45:35 M 1237
200 INAUEN Markus 15:45:43 M 110
201 YOUSFI Cherif 15:45:46 2EP M 1879
202 MINORI Taguchi 15:45:49 M 1209
203 SHIBATA Keisuke 15:45:50 URT Rabbits M 1412
204 WAN Xiao Wei 15:46:40 M 187
205 CHENG Ryan 15:47:02 RC Out Fitters M 84
206 YAMADA Toshihiko 15:48:54 M 1798
207 QIAN Qinhong 15:49:31 M 1341
208 MING Lang 15:49:31 M 1208
209 ZHANG Yusheng 15:49:32 CBN?Ultra?Trail M 218
210 TOKIDA Megumi 15:49:33 F 19 F 1561
211 LAM Shing Yip 15:50:39 Salomon HK M 33
212 CHAN Kin Chung 15:50:46 M 320
213 TAM Chun Fung 15:50:59 Team Columbia HK M 179
214 NG Jonathan 15:50:59 M 157
215 THIMASAN Pochara 15:51:13 M 1545
216 TATE Keven 15:53:00 Child Welfare Scheme M 182
217 YUEN Kit Shan 15:53:15 F 20 F 214
218 CHIANG Chung Wei 15:54:15 M 446
219 LEUNG Chi Shing Samy 15:54:21 M 963
220 YUAN Sid 15:54:39 M 213
221 TINWORTH Nic 15:55:44 Team Green BROOKS M 183
222 KO Man Fai 15:56:46 M 816
223 XU Peng 15:57:06 M 1788
224 GENG Lucong 15:57:07 M 599
225 YOSHIDA Hiroshi 15:57:09 M 1876
226 TSANG Tak Yee 15:58:05 M 1580
227 WONG Wai Chuen 15:58:06 Raidlight M 1730
228 ZHU Jie 15:58:19 M 2011
229 CHEN Yueliang 15:58:33 M 83
230 LIU Kar Ho 15:58:43 M 1102
231 LEE Chak Yau 15:59:02 M 920
232 NG Brian Ka Cheung 15:59:16 Team Garlic M 1251
233 LAW Chor Kin 15:59:17 Vibram M 53
234 ZHENG Boyong 15:59:39 M 1975
235 WONG Wai Lun 15:59:46 Faith Walker M 1731
236 ROCH Joan 16:00:05 Mountain equipment Co op M 27
237 LEE Jiun Chang 16:00:30 M 928
238 LI Mao 16:01:47 CBN Ultra Trail M 1020
239 BRUCE Thorsten 16:01:52 M 272
240 SAK Kai Yau 16:01:55 M 1371
241 WU Hsinping 16:02:26 M 1742
242 SENN Nora 16:02:26 F 21 F 49
243 LIANG Yong Jia 16:03:42 M 1055
244 HONG Choon Sik 16:03:53 M 691
245 ELDER David 16:03:53 M 543
246 TSANG Jeffrey 16:05:32 M 184
247 CABRE Ferran 16:05:38 M 276
248 WU Qian 16:05:50 M 1751
249 WONG Chi Man 16:07:25 M 1692
250 PANG Kin Sun 16:07:34 M 167
251 CHEUNG Kin Man 16:08:36 M 436
252 LAU Ho Lan 16:08:54 M 896
253 WU Kin Pong 16:09:38 M 1745
254 ZHOU Huanhui 16:10:15 M 1994
255 QIN Zhenniing 16:10:22 M 1346
256 CHAN Kin Chong 16:10:56 M 319
257 VAN EETVELT Ivan 16:12:20 M 1603
258 LIU Zhongchun 16:13:26 F 22 F 144
259 NGUYEN Binh 16:14:46 M 159
260 LIM Kooi Hong 16:14:50 M 1069
261 CHAN Young 16:14:50 M 345
262 ZHAO Yu 16:18:02 M 1973
263 CUI Huarui 16:25:32 CBN Ultra Trail M 508
264 LI Degang 16:25:48 M 997
265 CHAN Wai Hon 16:26:02 M 341
266 CHU Hongtat 16:26:17 M 483
267 LECHEVALLIER Jean Michel 16:30:01 M 125
268 SO Larry 16:30:43 KFC Helper Team M 1443
269 JI Kwanghyun 16:31:29 M 769
270 YANG Zhida 16:32:56 M 1830
271 ZHOU Liming 16:34:44 M 1998
272 MIAO Yun 16:34:44 M 1207
273 SRIPARAGUL Jirapol 16:35:46 M 1450
274 CARLONE Thomas 16:36:46 M 290
275 JING Gang 16:37:42 M 784
276 CAILLE Nicolas 16:38:26 M 281
277 ZHU Xiaowen 16:38:54 M 2015
278 BORNE Jeremy 16:39:23 Invader M 270
279 FREIMAN Ilan 16:40:31 M 575
280 CHING WING YEE Flora 16:41:37 F 23 F 88
281 CHIKARA Takeda 16:43:09 Triumph M 449
282 LI Xiaoyu 16:43:43 M 1032
283 ADDISON Julian 16:44:55 M 230
284 SAITO Tadaaki 16:45:42 JST M 1370
285 CHEUNG Chi Lung 16:46:58 M 429
286 CHAN Tommy Hoi Kit 16:47:18 Swire Coca Cola HK M 339
287 LEUNG Ying Suet 16:47:42 Cosmoboys F 24 F 137
288 FUNG James Lim Cheung 16:48:17 M 586
289 AU Lap Ming 16:53:28 M 244
290 FENG Yi 16:56:52 M 565
291 MARCO Fernando 16:59:50 M 1191
292 KUEK Han Hiong 17:00:28 M 830
293 CHAN Kenneth 17:00:43 M 80
294 SORDET Olivier 17:01:28 DU Gland A U Chene M 1448
295 BIAU Lionel 17:01:29 DU Gland A U Chene M 263
296 HANAWA Shota 17:01:56 M 635
297 KURASHIMA Yoshiya 17:06:42 M 835
298 CHEN Long 17:08:42 M 380
299 VIVION Sylvain 17:12:04 M 1609
300 LIN Chia Jung 17:12:27 M 1081
301 STRICKLETT Rhonda 17:12:44 F 25 F 175
302 CHENG Tao 17:14:11 M 418
303 CHEN Zengchao 17:15:20 M 403
304 LIU Wenrui 17:15:34 M 143
305 LIN Weiwei 17:15:54 M 1086
306 YOUNG Evan 17:17:07 CBN Ultra Trail M 1878
307 OLIVIER Beguin 17:17:39 M 1286
308 GeRARD Jeremy 17:17:41 M 600
309 LI Zhengwei 17:22:57 M 1045
310 LI Jun 17:23:20 M 1011
311 CHEW Zen 17:24:20 FAR Singapore M 442
312 LIU Shibo 17:24:51 M 1110
313 GU Yiwen 17:25:47 F 26 F 615
314 SVENNING Peter 17:26:58 M 177
315 NI Yusheng 17:31:28 M 1274
316 LI Alan 17:32:25 M 993
317 WONG Isaac 17:32:54 Faith Walker M 1700
318 HUANG Yunfeng 17:33:20 M 732
319 YANG Lixin 17:33:22 M 1815
320 LAM Kai Hong Samson 17:36:57 M 870
321 WONG Onson 17:37:00 M 1716
322 QIAN Si 17:37:16 M 1342
323 LI Yanshan 17:39:24 M 1036
324 CHEN Yuhua 17:39:35 M 401
325 LIU Jianguo 17:40:10 M 1097
326 TSUI Tat On 17:40:43 M 1594
327 SEETHALER Christian 17:41:02 M 1388
328 CHEANG Reuben 17:41:30 M 363
329 LOCK Kwok Fai 17:41:34 M 1135
330 CHE Stephanie 17:41:52 F 27 F 361
331 BEAULAT Hubert 17:45:00 M 254
332 YU Chun Ming 17:45:41 M 1880
333 WANG Ran 17:47:19 M 1644
334 WONG Hok Fai 17:47:41 M 198
335 ZHU Huiwei 17:50:02 M 2010
336 HU Yaochao 17:50:08 M 705
337 WU Qingche 17:50:21 M 1752
338 LI Fengchun 17:50:56 F 28 F 999
339 ANDREA Andrea 17:51:34 F 29 F 236
340 LEE Ka Fai 17:52:41 Trab M 932
341 TANG Cheuk Man Jay 17:53:05 M 1509
342 LAW Ho Ming 17:55:15 M 909
343 CHUI Chi Yuen 17:55:27 M 490
344 SMITH Hugo 17:55:28 M 1439
345 WANG Huimin 17:55:41 F 30 F 188
346 MAKI Ken 17:55:48 M 1188
347 PASTORE Maurizio 17:55:56 Gruppo Citt? di Genova M 1313
348 FUNG KWOK HONG Billy 17:56:13 M 581
349 LAM Ka Shing 17:56:17 M 869
350 TSUJIMOTO Arihito 17:56:42 M 186
351 HSU Fei Sheng 17:56:58 M 696
352 PHAM KIM Danh 17:57:12 M 1325
353 SMIESZEK Witold 17:57:58 M 1437
354 CAI Martin 17:57:59 The Green Race HK M 278
355 LEUNG Pak Kei 17:59:10 M 977
356 TONG Tony 17:59:23 M 1566
357 ZHOU Dan 17:59:42 M 1992
358 LOPES Lino 18:01:06 Macau Trail runners M 1140
359 NAKAMURA Yukihisa 18:01:08 M 1240
360 NG Shuk Wai 18:02:53 EFCC Kong Fok Church F 31 F 1261
361 WANG Bao Chen 18:03:38 M 1618
362 LIM Chi Chow 18:04:02 M 1063
363 MCGEE Patrick 18:04:12 M 1202
364 MONROE Tom 18:04:23 Room to Read Yak Pack M 152
365 IZUCHI Maki 18:04:44 F 32 F 111
366 WANG Yuan 18:05:14 M 193
367 HAMAI Takahiro 18:05:59 Team Hamai M 630
368 CHEN Junjie 18:06:43 M 374
369 NAKAJIMA Mizue 18:08:02 F 33 F 1238
370 ZHANG Wei 18:08:03 M 1949
371 SHI Yang Shi 18:08:04 M 1411
372 PAN Aixi 18:08:35 M 1300
373 LE Ye 18:09:02 M 123
374 TONG Qingjin 18:09:03 Engine Bird M 1565
375 CHEN Weidong 18:09:11 M 392
376 YAN Weiguo 18:09:22 M 1804
377 QUEK Kok Kwang 18:09:45 M 1351
378 TENG Will 18:10:05 M 1535
379 PENG Zhiyun 18:10:10 M 1322
380 MENG Qiuyu 18:10:14 M 150
381 LUNG Yin Cheong 18:10:16 M 1157
382 SHEN Pi Cheng 18:10:16 M 1404
383 LEE Suk Byong 18:10:17 M 131
384 LIU Chui Shan 18:10:22 F 34 F 1088
385 ROELANDTS Jonathan 18:10:27 M 1362
386 LI Wu 18:10:32 M 1030
387 VAN EYLEN Peter 18:10:38 Belgian Desert Lions M 1604
388 LY Alexandre 18:12:42 M 1164
389 PINKHAEVA Anna 18:12:43 F 35 F 1328
390 BAI Yuqiu 18:12:44 F 36 F 74
391 WANG Yangyang 18:13:11 M 1656
392 ESTERHAZY Nicholas 18:14:46 M 550
393 PANG Kwong Fai Oscar 18:15:20 M 1302
394 CAI Jian Guang 18:15:39 M 277
395 GOETHALS Virginie 18:15:49 F 37 F 101
396 FUJITANI Akira 18:18:19 J Trec M 579
397 HE Bin 18:20:35 M 647
398 MARUYAMA Takashi 18:20:36 M 1193
399 LEUNG Chung Keung 18:23:15 M 965
400 VAN DEN BROECKE Bart 18:24:19 M 1602
401 KWAN Lun Tak 18:27:25 M 837
402 HU Xiyu 18:27:49 M 704
403 GAO Sihai 18:28:17 M 597
404 LAI Kwok On 18:28:17 M 860
405 JI Xin Li 18:28:24 Thorn Birds M 770
406 CHA Jianfang 18:28:46 F 38 F 297
407 WANG Jun 18:30:05 M 190
408 JIAO Qiang 18:30:33 M 782
409 HASHIMOTO Kenji 18:31:29 M 640
410 ZHANG Yaowei 18:31:44 M 1954
411 YANG Xiaobo 18:32:22 M 1823
412 HATORI Ayumu 18:33:33 Team Montura M 643
413 CHEN Xiaopeng 18:34:40 Vibram M 82
414 MACEY Simon 18:34:51 M 1178
415 LI Kai Chi 18:36:41 Dream Chasing Action M 1015
416 LIU Yang 18:36:42 M 1118
417 LU Hao 18:37:21 M 1145
418 MA Eric 18:37:39 Team 7DAYS M 1167
419 YIN XIU GANG Louis 18:38:01 M 1863
420 WENG Zuye 18:38:34 M 1681
421 DAI Xuyang 18:39:01 M 514
422 TRELA Bartlomiej 18:41:35 PokonajAstme.pl M 1572
423 WONG Patrick 18:41:58 M 1719
424 LO Sarah 18:42:36 F 39 F 1133
425 MO Tin Sang 18:43:04 M 1214
426 CHAN Ming Kin 18:44:23 Trab M 331
427 GU Haiyan 18:45:34 F 40 F 105
428 MA Zhenghuai 18:45:38 M 1177
429 ZOU Kalman 18:45:47 M 2019
430 LI Jia Hua 18:47:32 M 1007
431 ARNULPHY Nicole 18:47:44 F 41 F 72
432 PARK Junseop 18:47:50 M 1311
433 LEUNG Woon Ping 18:48:21 F 42 F 136
434 YIU Anson 18:49:25 Trab M 1868
435 KRAJCAR Zelko 18:49:50 M 824
436 JO Young Gook 18:50:05 M 114
437 COPPERE Pierre Henry 18:51:29 M 506
438 XU Tianshu 18:53:09 M 1790
439 HUANG Jinxiang 18:54:11 F 43 F 715
440 XU Nenghui 18:54:32 M 1787
441 RYAN Michelle 18:54:39 F 44 F 1367
442 ABDUL REZA Muhammad Wirawan 18:54:49 BDG Explorer M 70
443 HUANG Enchao 18:54:51 M 709
444 WEI Baoying 18:55:01 M 1668
445 JING Lingxi 18:55:03 M 785
446 IP Ching Wai 18:55:03 Team Garlic F 45 F 752
447 YIP Fung Ming Fion 18:55:03 EFCC Kong Fok Church F 46 F 208
448 HE Peng 18:55:20 M 651
449 KWONG Chi Chun Rickie 18:55:43 M 849
450 XU Gavin 18:55:44 M 1780
451 WONG Cheuk Yin 18:56:48 Go Done Trail Runners M 1689
452 DU Jiyu 18:56:50 M 534
453 CLARK Colin 18:57:08 M 501
454 LIN Wei 18:57:20 M 1085
455 HAN Jun 18:57:20 M 632
456 WONG Hysan 18:57:38 M 199
457 PRENEZ Anne 18:57:38 F 47 F 1337
458 LAI Andrew Yu Hin 18:59:05 M 854
459 SASAKI Naoko 18:59:06 F 48 F 1378
460 YUAN Feng 18:59:13 M 1900
461 BESNUS Emmanuel 18:59:19 M 258
462 CHEUNG Sze Ying Jennifer 18:59:23 F 49 F 439
463 CHIU Chih Heng 18:59:25 M 452
464 GU Yan 18:59:27 HK100 Vibram F 50 F 614
465 CHUNG Calf 18:59:31 M 493
466 LIU Shu 18:59:32 M 1111
467 XU Tao 18:59:39 M 1789
468 LUO Ken 18:59:41 Vibram M 1160
469 KIM Yongkee 19:00:03 M 808
470 YEONG Lai Ling 19:00:21 F 51 F 1850
471 SU Lan 19:00:47 HK100 Vibram M 176
472 TONG Yongsi 19:01:10 M 1568
473 LEUNG Lilian 19:03:20 F 52 F 133
474 DARBON Nathalie 19:03:34 F 53 F 515
475 YIM King Hon 19:04:13 HH & TSBR M 1860
476 HUNG Ka Leung 19:04:44 EFCC Kong Fok Church M 744
477 SO Fai Leslie 19:04:44 EFCC Kong Fok Church M 1441
478 HO Yiu Fung 19:04:48 Never Stop Fire M 685
479 WEI Xiaofeng 19:04:51 M 1673
480 LI Chin Tsung 19:04:51 M 995
481 SUN Xiaosheng 19:05:37 M 1473
482 HAN Yingxiang 19:05:45 M 634
483 YU Lei 19:05:46 DL100 M 211
484 LI Sunny (Yunfeng) 19:06:04 M 1025
485 HIRATA Keisuke 19:06:42 M 661
486 CHOW Yiu Cho 19:07:27 Sonic Step M 479
487 LI Lai Ting 19:07:45 F 54 F 1018
488 GAO Pengfei 19:13:59 M 595
489 WEN Lei 19:14:09 UTMX M 196
490 KWAN Yat Fai Ivan 19:15:23 M 840
491 CHANG Wing Tat 19:15:54 M 349
492 LUO Qing 19:16:30 M 1162
493 LAU Kim Wai 19:16:37 M 900
494 DU Zhiwei 19:16:38 M 537
495 ZHANG Aijuan 19:16:53 F 55 F 1927
496 HO Wai Kong 19:17:02 M 682
497 SHUM Jeremy 19:19:31 M 1421
498 LIU Qiang 19:20:36 M 1108
499 FENG Huaxing 19:20:43 CBN M 561
500 HUANG Yimin 19:20:55 Vibram M 731
501 CHEN Chun Hsin 19:20:55 M 366
502 TOH Alan 19:21:09 M 1558
503 CHEN Jhyheng 19:21:11 M 373
504 FERRANDO Santi 19:21:15 M 566
505 ZHANG Peng 19:21:22 M 1941
506 VOO Chris 19:21:32 F 56 F 1611
507 PAAVOLA Antti 19:21:35 Microsoft M 1298
508 WANG Qiong 19:21:59 F 57 F 1643
509 YU Kathy 19:22:06 KFC F 58 F 1890
510 YUEN YUK TONG Yuk Tong 19:22:41 Trail Rabbits M 1911
511 YOSHINO Tsuyoshi 19:22:47 Vibram M 1877
512 TAM Hoileung 19:22:55 M 1487
513 YEUNG Christina 19:23:10 Adventure Power F 59 F 1851
514 GOH Leong Hwee 19:23:14 M 604
515 KONG You Long 19:24:47 M 822
516 HAWLEY Charles 19:26:14 M 646
517 TAN Dehui 19:26:23 F 60 F 1496
518 ZHOU Linda 19:26:24 F 61 F 1999
519 BROWN Dwayne 19:26:26 M 271
520 CHENG Teddy 19:26:30 M 420
521 WU Qiwei 19:26:31 M 1753
522 LI Xiaoyuan 19:26:31 M 1033
523 HE Xulin 19:26:40 F 62 F 653
524 ZHOU Caichi 19:26:49 M 1990
525 YAN Jianbing 19:26:55 M 1801
526 LIANG Yilong 19:26:56 M 1054
527 LAI Kwok On 19:26:57 M 861
528 WANG Wangzhenjie 19:27:15 M 1646
529 JIANG Liyan 19:27:15 F 63 F 775
530 NOMOTO Tetsuro 19:28:03 KKP M 1279
531 NI Lei 19:28:07 M 1273
532 TSE Wan Yin 19:28:35 M 1587
533 TSE Kar Chun 19:28:37 M 1584
534 MIURA Hiroo 19:29:27 M 1212
535 FUNG Sze Ming 19:29:43 M 591
536 YUEN Kwok Man 19:29:44 M 215
537 REN Yumei 19:29:56 F 64 F 1355
538 OZAKI Ayaka 19:30:02 F 65 F 1297
539 GUO Lei 19:30:07 M 623
540 REN Yingdong 19:30:16 M 1354
541 FAN Tsz Wing 19:30:40 M 555
542 CHEN Peng 19:32:39 M 383
543 YUM Eric 19:32:42 M 1912
544 NIELSEN Lookpetch 19:32:55 Bangkok Runners M 1275
545 PANG Siu Chuen 19:33:04 M 1305
546 HUANG Xiaohui 19:33:18 F 66 F 727
547 RUAN Yongjun 19:33:24 CBN Ultra Trail M 1365
548 ZHU Peng 19:33:34 M 2012
549 FUNG Yuen Yee Amy 19:33:45 F 67 F 592
550 CHAN Kenny 19:33:53 M 318
551 LAO Ka Lai 19:34:03 F 68 F 892
552 LIM Mun Yin 19:34:10 F 69 F 1072
553 SIN Ka Chun 19:34:16 M 1431
554 LAU Hoi Fai 19:34:24 Kin Hang Hiking Club M 897
555 TANG Stanley Kf 19:35:19 Trab M 1518
556 CALLENS Alex 19:35:24 M 282
557 ZAO Junying 19:35:28 M 1919
558 TAN Eu Jin 19:35:31 M 1497
559 LIU Jiang Bo 19:36:14 M 1096
560 WANG Zhongwen 19:36:40 M 1663
561 WONG Ray Cs 19:36:44 M 1723
562 LABELLE Joggerjoel 19:37:09 Vibram M 853
563 NG SEOW KONG Seow Kong 19:37:14 M 1266
564 HONG Baoen 19:37:19 Vibram M 690
565 XIA Xiaocheng 19:37:22 M 1765
566 CHEUNG Chun Hoo Anson 19:37:22 M 431
567 QIN Jing 19:37:26 F 70 F 1344
568 TANG Yufan 19:37:48 M 1524
569 HIMARAS Eleni 19:38:08 F 71 F 659
570 LIANG Gang 19:38:44 M 1051
571 KWONG Samuel 19:40:15 M 851
572 OKAZAKI Ryota 19:40:46 M 2024
573 WEN Fenglin 19:40:49 M 1676
574 YOKOTA Hisashi 19:40:53 M 1871
575 EINAGA Manami 19:41:08 F 72 F 542
576 SHEN Ziyan 19:41:09 CBN Ultra Trail M 1407
577 SU Meng Hui 19:41:13 M 1456
578 CHEN Lu 19:41:29 F 73 F 381
579 CHAN Lai Yin 19:41:36 M 324
580 LI Hing 19:41:46 M 1004
581 CHU Weigen 19:41:52 M 487
582 KINLOUGH Elaine 19:42:26 Hey Running F 74 F 809
583 CHEONG Kin Hong Steve 19:42:32 M 425
584 LAW Kwong Chow 19:42:47 Kin Hang Hiking Club M 912
585 CHEN Canru 19:42:50 F 75 F 365
586 HOLL Alexander 19:43:00 M 687
587 XIONG Xianjun 19:43:05 M 1778
588 TUNG Ka Lung 19:43:25 Charmsports M 1595
589 TANG Wan Chuen 19:43:29 M 1520
590 BI Yunlong 19:43:32 M 260
591 LO Edward 19:43:39 M 1126
592 YAU Ho Tak 19:44:30 M 1839
593 WONG Chun Ming 19:44:52 M 1694
594 PANG Man Kin 19:44:52 M 1303
595 CHEONG Ka Pou 19:45:09 M 424
596 DONG Yun 19:45:33 M 531
597 CHAN Adrian 19:46:01 M 299
598 LAI Cho Ming 19:46:21 M 856
599 LI Jiangbo 19:46:33 M 1009
600 CHANG Chih Yuan 19:46:49 GFS M 346
601 ZHU Huan 19:46:52 M 2009
602 PATTARAPANAWAN Woravut 19:46:56 M 1315
603 MEISNER NIELSEN Kasper 19:46:57 M 1204
604 TO Kwong Kit 19:47:08 M 1556
605 LEUNG Andes 19:47:08 Run Our City M 959
606 TAM Kam Yee 19:47:22 F 76 F 1489
607 TAY Roy Kian Mong 19:47:27 Running Department M 1530
608 HUI Tang Kobe 19:47:34 M 741
609 SHEN Qiaolin 19:48:50 M 1405
610 JIANGJUN Liu 19:49:03 M 781
611 WANG Xiao Ou 19:49:26 M 1649
612 STONE Tim 19:49:34 M 1453
613 HIRONO Takao 19:50:04 Ottasya Club M 662
614 AULT Ashley 19:50:18 F 77 F 247
615 DING Aeron 19:50:35 M 522
616 SU Caihong 19:51:21 F 78 F 1455
617 VALTER Florian 19:51:54 M 1600
618 CUI Yongping 19:52:18 M 510
619 KWOK Ka Chun 19:52:27 M 841
620 GUO Fenfei 19:52:30 M 620
621 BLAVK Jason 19:52:34 M 265
622 MAK Chris 19:52:53 M 1184
623 LI Zhenning 19:54:07 M 1046
624 SRISUTTINUN Rabin 19:54:08 M 1451
625 WU Gang 19:54:12 M 1740
626 WU Sai Cheong 19:54:14 M 1754
627 MATSUNAGA Yoji 19:54:16 M 1198
628 ZHANG Zheng 19:54:20 M 1960
629 TSE Wing Yan Rouisa 19:55:00 Ching Long F 79 F 1588
630 AN Jongkil 19:55:15 Damyang M 235
631 TANAKA Sumiko 19:55:44 F 80 F 1508
632 YU Hongwen 19:55:47 M 1882
633 LI Hongbo 19:56:07 M 1005
634 FUNG Kwok Fai 19:56:44 M 590
635 YAO Ying 19:56:49 M 1834
636 CHEN Ronghuang 19:56:51 M 386
637 WANG Hao 19:56:51 M 1626
638 CONG Li 19:56:58 CBN Ultra Trail F 81 F 504
639 CHEN Wei 19:57:00 M 391
640 LI Yiping 19:57:02 M 1037
641 DOE Kenichi 19:57:06 M 528
642 DING Hanya 19:57:26 M 524
643 CHEN Huawei 19:57:56 M 371
644 SANADA Yuichi 19:58:50 M 1376
645 KWONG Lydia 19:59:23 F 82 F 850
646 PENG Qian 19:59:32 F 83 F 1321
647 MAK Joanna 19:59:36 F 84 F 1187
648 ZHENG Yanhao 19:59:38 M 1985
649 OTSUKA Etsuji 20:01:32 M 1293
650 XU Zhihong 20:05:47 M 1793
651 IP Chi Ho 20:08:06 M 751
652 LEE Chi Ho 20:09:22 M 921
653 WONG Mung Ching Billy 20:10:14 M 1715
654 LIU Jie 20:10:17 M 1098
655 LIU Guangyuan 20:12:59 M 1092
656 JIA Qiulan 20:15:24 F 85 F 771
657 CHENG Wing Ming Patrick 20:17:01 M 422
658 LU Quanhong 20:17:32 M 1146
659 ZHANG Xu 20:18:26 M 1951
660 VAN DE VELDE Kris 20:24:35 Team Kuai Sports M 1601
661 CAMENISCH Thomas 20:28:05 M 283
662 ZHAN Youyi 20:32:40 M 1926
663 LI Jasmine 20:35:13 F 86 F 1006
664 MIYOSHI Reiko 20:40:42 Fuji Trail Runners Club F 87 F 1213
665 FUNG Fu Wah 20:44:52 M 583
666 SO Kin Shing 20:45:01 M 1442
667 CHEUNG Ka Wai 20:46:04 M 435
668 RENSEMA Doede Martijn 20:48:18 M 1357
669 LEUNG Manman Ching Man 20:50:41 F 88 F 976
670 LAM Tony 20:51:05 M 878
671 HE Chaoran 20:52:02 CBN Ultra Trail M 649
672 HUANG Lisheng 20:52:39 M 717
673 YAMAMOTO Yoshibumi 20:53:08 M 1799
674 LAM Siu Hung 20:53:12 M 874
675 MU Rui 20:56:13 M 1229
676 XU Lixiao 20:56:19 Racing The Planet M 1784
677 TIAN Hongqin 20:56:24 F 89 F 1549
678 CHAN Chi Man 20:57:20 M 305
679 JIANG Xinye 20:58:22 M 777
680 CHENG Kevin 20:59:05 M 414
681 CHMIEL JR George 21:00:09 M 458
682 WAI Philip Shiu Heen 21:00:32 Meetup M 1613
683 SIU Elizabeth 21:00:51 F 90 F 1435
684 XIA Zaikui 21:01:49 M 1766
685 LAI Yu Chung 21:01:59 M 863
686 TANG Kian Hoe 21:06:08 M 1514
687 WU Ji 21:06:41 M 200
688 TAMURA Toshitaka 21:08:09 M 1493
689 GRIMM Mike 21:09:34 M 613
690 YAN Shi 21:10:32 Racing The Planet M 1803
691 SU Ziling 21:11:42 M 1458
692 MA Jianjing 21:12:37 F 91 F 146
693 LI Zhi Wen 21:15:19 M 1047
694 NG Philip 21:19:45 Food Angel M 1257
695 TSE King Pang 21:20:06 EFCC Kong Fok Church M 1585
696 LIU Liang Hui 21:21:45 M 1104
697 KWAN Tung 21:22:35 M 838
698 WANG Jialian 21:28:03 M 1630
699 LI Guozhen 21:28:53 M 1001
700 YUEN Kam Hung 21:30:36 M 1908
701 HO Hoo Yeen 21:31:26 M 672
702 SZETO Chi Pang 21:31:40 M 1480
703 WONG Ka Ho Lawrence 21:32:00 M 1706
704 TOH Kok Leong Joshua 21:32:43 Easy Company M 1559
705 TAKESHI Hoya 21:32:46 HOYA Takeshi M 1485
706 TANG Gilbert 21:34:02 M 1512
707 HO Kit 21:35:04 F 92 F 676
708 LI Youwei 21:35:11 M 1038
709 BARTES Jaume 21:37:55 M 253
710 AHN Byeongsik 21:38:52 M 231
711 ZHOU Yuqin 21:40:13 F 93 F 2003
712 LEUNG Angus 21:42:31 M 960
713 LI Wen Bo 21:42:40 M 1027
714 WANG Ziyang 21:42:50 M 1665
715 KUSANO Yukiharu 21:42:55 M 836
716 JIANG Jack 21:43:15 EFCC Kong Fok Church M 774
717 HUANG Happy 21:45:44 M 710
718 HU Hengjia 21:46:34 M 700
719 MOROZUMI Megumi 21:46:42 F 94 F 1227
720 IZUMIDA Koji 21:47:06 Genki Nippon M 761
721 YEOH Freddy 21:47:21 M 1849
722 CAI Sihui 21:48:21 iPaobu Club M 279
723 CHU Kwok Yiu 21:49:28 M 485
724 CHEUNG Ka Ling 21:50:37 F 95 F 434
725 LI Dazhi 21:50:40 M 996
726 WANG Yaohai 21:50:44 M 1657
727 OKUDAIRA Taichi 21:50:51 Kanehide AC M 1285
728 LUK Yuk 21:51:47 M 1155
729 TAQUET Charlotte 21:51:50 F 96 F 1527
730 GARREAU Vincent 21:51:55 M 598
731 LAM Wing Nga 21:53:42 F 97 F 884
732 ZHONG Jun 21:53:46 M 1988
733 NI Jing 21:54:27 F 98 F 1272
734 LEE James 21:55:00 M 927
735 ZHANG Shijun 21:55:17 M 1946
736 ZHANG Quan 21:55:36 M 1944
737 YIN Taiqi 21:56:26 M 1864
738 CHEN Lan 21:57:15 F 99 F 377
739 WANG Aiming 21:58:45 M 1617
740 CHOW Hung 21:58:55 F 100 F 475
741 HUANG Ronghui 21:59:22 ???? M 720
742 GAO Ping 21:59:24 F 596
743 YANG Feifei 21:59:26 F 1810
744 HUNG Chung Ping 21:59:30 M 743
745 SEIICHI Nagata 21:59:41 M 1390
746 CHAN Sum 22:01:24 M 338
747 KAM Bernard 22:03:54 M 792
748 CHENG Victor 22:04:33 M 421
749 KITAZAWA Sanae 22:04:57 F 813
750 ZHAO Peng 22:05:54 F 1970
751 LI Yuanjuan 22:08:29 F 1040
752 YANG Dajiong 22:08:32 M 1808
753 YANG Qifan 22:09:34 M 1817
754 MANGANO Michelangelo 22:10:27 M 1190
755 WANG Chunqiang 22:10:55 M 1621
756 HUANG Jia 22:17:45 M 712
757 CHOW Wingchung Jimmy 22:18:24 M 478
758 LIN Anthony 22:21:52 M 1079
759 YU Yanmeng 22:22:28 F 212
760 SU Zhenlei 22:22:42 M 1457
761 CHAN Howard 22:22:55 M 313
762 WONG Kin On James 22:23:37 M 1708
763 LOONG Kok Ping 22:24:08 M 1139
764 LERTPRASARTPORN Kongkitt 22:24:13 M 958
765 ZHANG Xuehai 22:25:39 M 1952
766 CHAN Man Ho 22:25:50 M 328
767 LAM Tak Cheong 22:26:12 M 876
768 HU Bin 22:26:28 M 697
769 LIANG Kanson 22:27:52 SPT M 1052
770 LI Tian 22:28:03 M 1026
771 YU Gengxin 22:28:12 M 1881
772 CHEN Guochao 22:28:39 M 368
773 NGAMWORRAROJSAKUL Nuttapong 22:28:55 M 1271
774 SO Wai Yiu 22:29:05 M 1445
775 WANG Yupeng 22:32:01 M 1660
776 QUAN Feng 22:32:13 M 1350
777 YIN Le 22:33:20 M 1862
778 GOTO Keisuke 22:33:26 M 610
779 WANG Ping 22:34:18 M 1642
780 CAPILI Aleksis 22:34:33 Malaybalay Runners M 289
781 ARANALDE Teresa 22:34:49 F 240
782 ZHOU Guobing 22:35:23 M 1993
783 ZHANG Yan 22:35:27 M 1953
784 TSE Hong Shing 22:40:07 M 1583
785 YANG Jun 22:40:26 F 206
786 CHOY Ka Fai 22:40:28 M 481
787 CAO Jianzhong 22:40:39 M 285
788 HO Chui Sze Tracy 22:40:43 Salomon Peak Chasers F 664
789 CHIU Joey 22:40:50 TN Buddy M 454
790 ZHUO Liu 22:41:03 M 2017
791 YUAN Jiyin 22:41:06 M 1902
792 HIRANO Jun 22:41:32 M 660
793 NANAD John Tyrone 22:46:24 M 1241
794 LEUNG Equeen 22:49:34 F 966
795 WANG Zhongke 22:50:58 M 1662
796 CHUNG Marine Hau Yee 22:51:42 F 495
797 TANG Cheuk Yin 22:54:02 M 1510
798 LEUNG Kwai Wah 22:54:49 M 973
799 YANG Zhaojun 22:55:15 M 1828
800 LEE Kin Hang 22:55:20 M 934


ReferencementCe site est listé dans la catégorie Sport : Sports extrêmes Dictionnaire
| Accueil | La Réunion  Vue du ciel | Météo | Cyclones | Volcan | Cirques de Mafate , Cilaos , Salazie | Photos Randonnées | Randonnées Réunion: Randos Espiègle , Courses montagne | Diagonale des Fous |  Marathon des Sables | Voyages Les stats du site | Fonds écran | Plan du site | Blog de runraid | Galerie photos Sport Réunion |